Regional Weather Roundup
Issued by NWS State College, PA

Home | Current Version | Previous Version | Graphics & Text | Print | Product List | Glossary On
Versions: 1 2 3 4 5 6 7 8 9 10 11 12 13 14 15 16 17 18 19 20 21 22 23 24 25 26 27 28 29 30 31 32 33 34 35 36 37 38 39 40 41 42 43 44 45 46 47 48 49 50
000
ASUS41 KCTP 290710
RWRCTP

REGIONAL WEATHER ROUNDUP
NATIONAL WEATHER SERVICE STATE COLLEGE PA
300 AM EDT MON MAY 29 2017

Note: "fair" indicates few or no clouds below 12,000 feet with no
significant weather and/or obstructions to visibility.

* = STATION THAT DOES NOT REPORT PRECIPITATION /E.G. RAIN...SNOW...ETC/
    THUNDER OR FOG.

PAZ002>004-007>009-013>016-020>023-029>032-290800-
WESTERN PENNSYLVANIA

CITY           SKY/WX    TMP DP  RH WIND       PRES   REMARKS
ERIE           LGT RAIN  62  59  90 S13       29.74R
MEADVILLE      RAIN      60  60 100 S5        29.77S FOG
FRANKLIN*      CLOUDY    57  55  94 SW6       29.78R
NEW CASTLE     FAIR      60  60 100 CALM      29.78F
BEAVER COUNTY  NOT AVBL
BUTLER*        CLOUDY    61  57  88 CALM      29.78S
PITTSBURGH INT LGT RAIN  63  63 100 CALM      29.78S
PITTSBURGH     LGT RAIN  62  60  93 CALM      29.79R
INDIANA*       CLOUDY    61  61 100 CALM      29.80F
LATROBE        CLOUDY    63  63 100 N5        29.79R
WASHINGTON CO* CLOUDY    63  57  82 W7        29.83R
$$

PAZ004>006-010>012-017>019-024>028-033>037-041-042-045-046-049>053-290800-
CENTRAL PENNSYLVANIA

CITY           SKY/WX    TMP DP  RH WIND       PRES   REMARKS
BRADFORD       LGT RAIN  59  58  96 S9G16     29.76S
DUBOIS         CLOUDY    59  57  93 SE7       29.76F
CLEARFIELD     LGT RAIN  60  60 100 CALM      29.78F FOG
JOHNSTOWN      CLOUDY    62  61  96 W9        29.80S FOG
ALTOONA        LGT RAIN  62  62 100 S9        29.80R FOG
STATE COLLEGE  RAIN      60  59  97 E5        29.79S
WILLIAMSPORT   LGT RAIN  61  59  93 SE10      29.79F FOG
SELINSGROVE    CLOUDY    60  59  96 E7        29.81F FOG
FT INDIANTOWN  DRIZZLE   58  58 100 E5        29.82F FOG
CAPITAL CITY   LGT RAIN  60  58  92 E3        29.83R FOG
HARRISBURG     DRIZZLE   60  60 100 E5        29.82R FOG
YORK           CLOUDY    60  60 100 E5        29.83R
$$

PAZ038>040-043-044-047-048-054-055-060>062-067>071-290800-
EASTERN PENNSYLVANIA

CITY           SKY/WX    TMP DP  RH WIND       PRES   REMARKS
SCRANTON       LGT RAIN  57  54  89 NE3       29.84F
MOUNT POCONO   LGT RAIN  50  50 100 E10       29.86F
ALLENTOWN      LGT RAIN  58  54  86 E8        29.85F
QUAKERTOWN*    CLOUDY    55  55 100 E6        29.85F
READING        LGT RAIN  58  58 100 E3        29.82F
LANCASTER      CLOUDY    60  60 100 E9        29.81F FOG
COATESVILLE    LGT RAIN  57  57 100 E10       29.83F
POTTSTOWN      LGT RAIN  56  55  97 NE6       29.85F
BLUE BELL      CLOUDY    55  55 100 E7        29.84F
DOYLESTOWN     RAIN      56  56 100 CALM      29.83F
WILLOW GROVE   NOT AVBL
NORTH PHILA    CLOUDY    59  57  93 NE8       29.85F
PHILADELPHIA   CLOUDY    59  57  93 NE9       29.82F
$$



USA.gov is the U.S. government's official web portal to all federal, state and local government web resources and services.